Change the Weather History Date:

Friday, October 26, 2012

  Actual Average (PASK) Record (PASK)
Temperature  
Mean Temperature 24 °F -  
Max Temperature 32 °F 18 °F 39 °F (2002)
Min Temperature 17 °F 10 °F -7 °F (1997)
Degree Days  
Heating Degree Days 40    
Moisture  
Dew Point 23 °F    
Average Humidity 85    
Maximum Humidity 100    
Minimum Humidity 74    
Precipitation  
Precipitation 0.00 in - - ()
Sea Level Pressure  
Sea Level Pressure 30.44 in    
Wind  
Wind Speed 4 mph (SE)    
Max Wind Speed 13 mph    
Max Gust Speed -    
Visibility 10 miles    
Events      
Averages and records for this station are not official NWS values.
T = Trace of Precipitation, MM = Missing Value Source: NWS Daily Summary

Daily Weather History Graph

Daily Weather History Graph

Search for Another Location

Airport or City:

Trip Planner

Search our weather history database for the weather conditions in past years. The results will help you decide how hot, cold, wet, or windy it might be!

Date:

Astronomy

Oct. 26, 2012 Rise Set
Actual Time 10:21 AM AKDT 6:34 PM AKDT
Civil Twilight 9:25 AM AKDT 7:30 PM AKDT
Nautical Twilight 8:24 AM AKDT 8:30 PM AKDT
Astronomical Twilight 7:25 AM AKDT 9:29 PM AKDT
Moon 5:41 PM AKDT (10/26) 6:33 AM AKDT (10/26)
Length of Visible Light 10h 05m
Length of Day
8h 13m
Waxing Gibbous, 92% of the Moon is Illuminated
Oct 26
Waxing Gibbous
Oct 29
Full
Nov 6
Last Quarter
Nov 13
New
Nov 20
First Quarter

Hourly Weather History & Observations

Time (AKDT) Temp. Windchill Dew Point Humidity Pressure Visibility Wind Dir Wind Speed Gust Speed Precip Events Conditions
12:16 AM 28.4 °F - 21.2 °F 74% 30.50 in 10.0 mi Calm Calm - N/A   Overcast
12:36 AM 28.4 °F - 23.0 °F 80% 30.50 in 10.0 mi Calm Calm - N/A   Overcast
12:56 AM 28.4 °F - 23.0 °F 80% 30.49 in 10.0 mi Calm Calm - N/A   Overcast
1:16 AM 28.4 °F 22.2 °F 23.0 °F 80% 30.48 in 10.0 mi ESE 5.8 mph - N/A   Overcast
1:36 AM 28.4 °F 24.6 °F 23.0 °F 80% 30.49 in 10.0 mi ESE 3.5 mph - N/A   Overcast
1:56 AM 28.4 °F 23.3 °F 23.0 °F 80% 30.48 in 10.0 mi SSE 4.6 mph - N/A   Overcast
2:16 AM 28.4 °F - 23.0 °F 80% 30.50 in 10.0 mi Calm Calm - N/A   Overcast
2:36 AM 28.4 °F 23.3 °F 23.0 °F 80% 30.49 in 10.0 mi SE 4.6 mph - N/A   Overcast
2:56 AM 28.4 °F 24.6 °F 23.0 °F 80% 30.48 in 10.0 mi SSE 3.5 mph - N/A   Mostly Cloudy
3:16 AM 26.6 °F 20.0 °F 21.2 °F 80% 30.47 in 10.0 mi SE 5.8 mph - N/A   Scattered Clouds
3:36 AM 26.6 °F 20.0 °F 21.2 °F 80% 30.48 in 10.0 mi East 5.8 mph - N/A   Mostly Cloudy
3:56 AM 28.4 °F 22.2 °F 23.0 °F 80% 30.47 in 10.0 mi ESE 5.8 mph - N/A   Overcast
4:16 AM 28.4 °F 24.6 °F 23.0 °F 80% 30.48 in 10.0 mi ESE 3.5 mph - N/A   Overcast
4:36 AM 28.4 °F 23.3 °F 23.0 °F 80% 30.47 in 10.0 mi SE 4.6 mph - N/A   Overcast
4:56 AM 28.4 °F 24.6 °F 23.0 °F 80% 30.47 in 10.0 mi SSE 3.5 mph - N/A   Overcast
5:56 AM 28.4 °F 23.3 °F 23.0 °F 80% 30.47 in 10.0 mi ESE 4.6 mph - N/A   Overcast
6:16 AM 28.4 °F 22.2 °F 23.0 °F 80% 30.47 in 10.0 mi ESE 5.8 mph - N/A   Overcast
6:36 AM 28.4 °F 21.2 °F 23.0 °F 80% 30.46 in 10.0 mi ESE 6.9 mph - N/A   Overcast
6:56 AM 26.6 °F 19.1 °F 21.2 °F 80% 30.45 in 10.0 mi ESE 6.9 mph - N/A   Mostly Cloudy
7:16 AM 26.6 °F 21.2 °F 21.2 °F 80% 30.46 in 10.0 mi ESE 4.6 mph - N/A   Clear
7:36 AM 24.8 °F 16.9 °F 21.2 °F 86% 30.45 in 10.0 mi SE 6.9 mph - N/A   Clear
7:56 AM 24.8 °F 19.1 °F 21.2 °F 86% 30.46 in 10.0 mi SE 4.6 mph - N/A   Clear
8:16 AM 24.8 °F 19.1 °F 21.2 °F 86% 30.45 in 10.0 mi SE 4.6 mph - N/A   Clear
8:36 AM 24.8 °F 17.9 °F 21.2 °F 86% 30.45 in 10.0 mi SE 5.8 mph - N/A   Scattered Clouds
8:56 AM 24.8 °F - 21.2 °F 86% 30.45 in 10.0 mi Calm Calm - N/A   Overcast
9:16 AM 24.8 °F 20.5 °F 21.2 °F 86% 30.45 in 10.0 mi ESE 3.5 mph - N/A   Overcast
9:36 AM 26.6 °F 21.2 °F 23.0 °F 86% 30.45 in 10.0 mi SE 4.6 mph - N/A   Overcast
9:56 AM 26.6 °F - 21.2 °F 80% 30.45 in 10.0 mi Calm Calm - N/A   Overcast
10:16 AM 26.6 °F 22.6 °F 23.0 °F 86% 30.45 in 10.0 mi SSE 3.5 mph - N/A   Overcast
10:36 AM 26.6 °F 22.6 °F 23.0 °F 86% 30.46 in 10.0 mi South 3.5 mph - N/A   Mostly Cloudy
10:56 AM 24.8 °F 19.1 °F 19.4 °F 80% 30.45 in 10.0 mi South 4.6 mph - N/A   Partly Cloudy
11:16 AM 21.2 °F - 19.4 °F 93% 30.45 in 10.0 mi Calm Calm - N/A   Clear
11:36 AM 21.2 °F 16.4 °F 19.4 °F 93% 30.45 in 10.0 mi SSE 3.5 mph - N/A   Clear
11:56 AM 24.8 °F 17.9 °F 23.0 °F 93% 30.45 in 10.0 mi SSE 5.8 mph - N/A   Mostly Cloudy
12:16 PM 28.4 °F 19.7 °F 26.6 °F 93% 30.45 in 10.0 mi SE 9.2 mph - N/A   Overcast
12:36 PM 28.4 °F 18.0 °F 24.8 °F 86% 30.44 in 10.0 mi SE 12.7 mph - N/A   Overcast
12:56 PM 28.4 °F 20.4 °F 26.6 °F 93% 30.44 in 10.0 mi SE 8.1 mph - N/A   Mostly Cloudy
1:16 PM 28.4 °F 19.7 °F 26.6 °F 93% 30.44 in 10.0 mi ESE 9.2 mph - N/A   Scattered Clouds
1:36 PM 30.2 °F 21.9 °F 26.6 °F 86% 30.43 in 10.0 mi ESE 9.2 mph - N/A   Clear
1:56 PM 30.2 °F 23.4 °F 26.6 °F 86% 30.43 in 10.0 mi ESE 6.9 mph - N/A   Clear
2:16 PM 30.2 °F 21.3 °F 26.6 °F 86% 30.43 in 10.0 mi ESE 10.4 mph - N/A   Clear
2:36 PM 30.2 °F 23.4 °F 26.6 °F 86% 30.44 in 10.0 mi ESE 6.9 mph - N/A   Clear
2:56 PM 30.2 °F 22.6 °F 26.6 °F 86% 30.43 in 10.0 mi ESE 8.1 mph - N/A   Clear
3:16 PM 30.2 °F 22.6 °F 26.6 °F 86% 30.43 in 10.0 mi ESE 8.1 mph - N/A   Clear
3:36 PM 32.0 °F 24.8 °F 26.6 °F 80% 30.43 in 10.0 mi ESE 8.1 mph - N/A   Clear
3:56 PM 32.0 °F 24.8 °F 26.6 °F 80% 30.42 in 10.0 mi ESE 8.1 mph - N/A   Clear
4:16 PM 32.0 °F 24.8 °F 26.6 °F 80% 30.42 in 10.0 mi SE 8.1 mph - N/A   Clear
4:36 PM 32.0 °F 23.6 °F 26.6 °F 80% 30.42 in 10.0 mi SE 10.4 mph - N/A   Clear
4:56 PM 30.2 °F 21.3 °F 26.6 °F 86% 30.42 in 10.0 mi SE 10.4 mph - N/A   Clear
5:16 PM 30.2 °F 21.3 °F 26.6 °F 86% 30.42 in 10.0 mi SE 10.4 mph - N/A   Clear
5:36 PM 30.2 °F 21.9 °F 26.6 °F 86% 30.41 in 10.0 mi SE 9.2 mph - N/A   Clear
5:56 PM 30.2 °F 21.9 °F 26.6 °F 86% 30.41 in 10.0 mi SE 9.2 mph - N/A   Clear
6:16 PM 28.4 °F 21.2 °F 24.8 °F 86% 30.41 in 10.0 mi SE 6.9 mph - N/A   Clear
6:36 PM 28.4 °F 21.2 °F 23.0 °F 80% 30.41 in 10.0 mi ESE 6.9 mph - N/A   Clear
6:56 PM 26.6 °F 19.1 °F 21.2 °F 80% 30.41 in 10.0 mi ESE 6.9 mph - N/A   Clear
7:16 PM 24.8 °F 16.9 °F 21.2 °F 86% 30.40 in 10.0 mi East 6.9 mph - N/A   Clear
7:36 PM 24.8 °F 16.9 °F 21.2 °F 86% 30.40 in 10.0 mi East 6.9 mph - N/A   Clear
8:36 PM 23.0 °F 18.4 °F 19.4 °F 86% 30.41 in 10.0 mi SE 3.5 mph - N/A   Clear
8:56 PM 21.2 °F 14.9 °F 19.4 °F 93% 30.40 in 10.0 mi SE 4.6 mph - N/A   Clear
9:16 PM 21.2 °F 16.4 °F 19.4 °F 93% 30.40 in 10.0 mi SSE 3.5 mph - N/A   Clear
9:36 PM 19.4 °F - 17.6 °F 93% 30.39 in 10.0 mi Calm Calm - N/A   Clear
9:56 PM 19.4 °F - 15.8 °F 86% 30.39 in 10.0 mi Calm Calm - N/A   Clear
10:16 PM 17.6 °F - 17.6 °F 100% 30.39 in 5.0 mi Calm Calm - N/A   Mostly Cloudy
10:36 PM 17.6 °F - 17.6 °F 100% 30.39 in 10.0 mi Calm Calm - N/A   Overcast
10:56 PM 19.4 °F - 17.6 °F 93% 30.39 in 10.0 mi Calm Calm - N/A   Overcast
11:16 PM 19.4 °F - 17.6 °F 93% 30.38 in 10.0 mi Calm Calm - N/A   Overcast
11:36 PM 19.4 °F - 17.6 °F 93% 30.38 in 10.0 mi Calm Calm - N/A   Overcast
11:56 PM 19.4 °F - 19.4 °F 100% 30.39 in 10.0 mi Calm Calm - N/A   Overcast